Etusivu
METAR-TAF:

METAR-TAF

Lentoasemat :

Corvallis, Oregon, Yhdysvallat

Leveyspiiri: 44-30N, Pituuspiiri: 123-17W, korkeus merenpinnasta: 75 m

Tämänhetkinen sää

Tämä raportti tehtiin 32 minuuttia sitten, kello 01.56 UTC
Tuuli 6 kn pohjoisesta
Lämpötila 20°C
Kosteus 46%
Ilmanpaine 1026 hPa
Näkyvyys: 16.1 km
selkeää

METAR: KCVO 280156Z AUTO 35006KT 10SM CLR 20/08 A3029 RMK AO2 SLP259 T02000078

Aika: 19:28 (02:28 UTC)


TAF: puuttuu

Säähavainnot ja -ennusteet yli 4000 lentoasemalta (METAR- ja TAF-raportit).

Käytössä olevat sääasemat on merkitty karttaan keltaisilla ja punaisilla pisteillä.

Aseta hiiri pisteen päälle nähdäksesi sääaseman nimen.

Klikkaa sitten nähdäksesi säähavainnot ja -ennusteet.

Kartan vaihtaminen: klikkaa mustalla rastilla varustettuja vihreitä pisteitä, niin voit zoomata sisään; viivalla varustettua vihreää pistettä, niin voit zoomata ulos tai vihreitä nuolia, niin pääset viereisille kartoille.


METAR-TAF: